Satellite: HRBE Catalog number: 37855 Epoch time: 14022.88364640 Element set: 699 Inclination: 101.7135 deg RA of node: 344.6069 deg Eccentricity: 0.0226820 Arg of perigee: 114.9911 deg Mean anomaly: 312.4529 deg Mean motion: 14.86839639 rev/day Decay rate: 4.846e-05 rev/day^2 Epoch rev: 12106 Checksum: 319
Satellite: RS-39 Catalog number: 38051 Epoch time: 14023.88674132 Element set: 185 Inclination: 051.6315 deg RA of node: 219.0989 deg Eccentricity: 0.0006127 Arg of perigee: 343.5920 deg Mean anomaly: 155.1526 deg Mean motion: 15.42464662 rev/day Decay rate: 1.9140e-04 rev/day^2 Epoch rev: 11171 Checksum: 292
Satellite: E-STAR Catalog number: 38079 Epoch time: 14023.16994855 Element set: 719 Inclination: 069.4664 deg RA of node: 004.4902 deg Eccentricity: 0.0500088 Arg of perigee: 200.9363 deg Mean anomaly: 293.2358 deg Mean motion: 14.75480544 rev/day Decay rate: 6.2263e-04 rev/day^2 Epoch rev: 10183 Checksum: 313
Satellite: GOLIAT Catalog number: 38085 Epoch time: 14023.77470941 Element set: 746 Inclination: 069.4729 deg RA of node: 007.4091 deg Eccentricity: 0.0515580 Arg of perigee: 202.2850 deg Mean anomaly: 231.8852 deg Mean motion: 14.72050711 rev/day Decay rate: 5.4682e-04 rev/day^2 Epoch rev: 10180 Checksum: 290
Satellite: HORYU-2 Catalog number: 38340 Epoch time: 14023.86199015 Element set: 739 Inclination: 098.2448 deg RA of node: 338.8564 deg Eccentricity: 0.0011472 Arg of perigee: 277.0399 deg Mean anomaly: 082.9517 deg Mean motion: 14.71713244 rev/day Decay rate: 1.606e-05 rev/day^2 Epoch rev: 9056 Checksum: 320
Satellite: RS-40 Catalog number: 38735 Epoch time: 14023.59349857 Element set: 467 Inclination: 082.4776 deg RA of node: 017.6994 deg Eccentricity: 0.0015985 Arg of perigee: 205.8881 deg Mean anomaly: 154.1401 deg Mean motion: 12.42556334 rev/day Decay rate: 2.4e-07 rev/day^2 Epoch rev: 6762 Checksum: 326
Satellite: PROITERES Catalog number: 38756 Epoch time: 14023.81425535 Element set: 511 Inclination: 098.2353 deg RA of node: 109.7434 deg Eccentricity: 0.0013654 Arg of perigee: 120.5084 deg Mean anomaly: 239.7470 deg Mean motion: 14.74595359 rev/day Decay rate: 6.56e-06 rev/day^2 Epoch rev: 7390 Checksum: 305
Satellite: BEESAT-3 Catalog number: 39134 Epoch time: 14022.90667623 Element set: 480 Inclination: 064.8766 deg RA of node: 237.5292 deg Eccentricity: 0.0013220 Arg of perigee: 331.2215 deg Mean anomaly: 028.8173 deg Mean motion: 15.02658892 rev/day Decay rate: 4.219e-05 rev/day^2 Epoch rev: 4181 Checksum: 289
Satellite: BEESAT-2 Catalog number: 39136 Epoch time: 14023.85770251 Element set: 472 Inclination: 064.8756 deg RA of node: 234.6656 deg Eccentricity: 0.0014352 Arg of perigee: 331.1434 deg Mean anomaly: 028.9394 deg Mean motion: 15.02377423 rev/day Decay rate: 5.900e-05 rev/day^2 Epoch rev: 4195 Checksum: 295
Satellite: CAPE-2 Catalog number: 39380 Epoch time: 14023.83442794 Element set: 71 Inclination: 040.5163 deg RA of node: 233.3439 deg Eccentricity: 0.0003579 Arg of perigee: 017.2774 deg Mean anomaly: 342.8273 deg Mean motion: 15.21494539 rev/day Decay rate: 4.088e-05 rev/day^2 Epoch rev: 987 Checksum: 307
Satellite: TRLBLAZER Catalog number: 39382 Epoch time: 14023.88269528 Element set: 81 Inclination: 040.5016 deg RA of node: 231.8774 deg Eccentricity: 0.0003641 Arg of perigee: 277.9605 deg Mean anomaly: 082.1407 deg Mean motion: 15.25352916 rev/day Decay rate: 2.9045e-04 rev/day^2 Epoch rev: 988 Checksum: 303
Satellite: ZACUBE-1 Catalog number: 39417 Epoch time: 14023.74469682 Element set: 192 Inclination: 097.7925 deg RA of node: 099.2889 deg Eccentricity: 0.0063483 Arg of perigee: 353.0721 deg Mean anomaly: 006.9606 deg Mean motion: 14.77349692 rev/day Decay rate: 1.095e-05 rev/day^2 Epoch rev: 936 Checksum: 343
Satellite: TRITON-1 Catalog number: 39427 Epoch time: 14022.78590434 Element set: 52 Inclination: 097.7828 deg RA of node: 097.1130 deg Eccentricity: 0.0119990 Arg of perigee: 353.5093 deg Mean anomaly: 006.4544 deg Mean motion: 14.64747903 rev/day Decay rate: 8.41e-06 rev/day^2 Epoch rev: 910 Checksum: 302
Satellite: DELFIN3XT Catalog number: 39428 Epoch time: 14023.78382316 Element set: 56 Inclination: 097.7817 deg RA of node: 097.8059 deg Eccentricity: 0.0131016 Arg of perigee: 350.5181 deg Mean anomaly: 009.3548 deg Mean motion: 14.62269037 rev/day Decay rate: 1.419e-05 rev/day^2 Epoch rev: 922 Checksum: 305
Satellite: GOMX-1 Catalog number: 39430 Epoch time: 14023.77045984 Element set: 160 Inclination: 097.7768 deg RA of node: 097.2020 deg Eccentricity: 0.0158611 Arg of perigee: 351.4076 deg Mean anomaly: 008.4427 deg Mean motion: 14.56204783 rev/day Decay rate: 7.91e-06 rev/day^2 Epoch rev: 919 Checksum: 304
Satellite: $50SAT Catalog number: 39436 Epoch time: 14022.96840040 Element set: 63 Inclination: 097.7938 deg RA of node: 099.2396 deg Eccentricity: 0.0030272 Arg of perigee: 009.4745 deg Mean anomaly: 350.7005 deg Mean motion: 14.85103098 rev/day Decay rate: 7.939e-05 rev/day^2 Epoch rev: 928 Checksum: 317
Satellite: PUCPSAT-1 Catalog number: 39442 Epoch time: 14023.75916934 Element set: 47 Inclination: 097.7952 deg RA of node: 100.0620 deg Eccentricity: 0.0035929 Arg of perigee: 001.8444 deg Mean anomaly: 358.2853 deg Mean motion: 14.84969304 rev/day Decay rate: 1.845e-05 rev/day^2 Epoch rev: 818 Checksum: 311
/EX
participants (1)
-
Ray Hoad